When you browse on this site, cookies collect data to enhance your experience and personalize the content and advertising you see.
Visit our Privacy Policy to learn more. By continuing to use the site, you agree to this use of cookies and data.
  • In Schweiz
  • Länderverzeichnis
  • Für 7 Tage
  • Wassertemperatur
  • Wetterkarte
  • Widgets
  • user-avatar
    Anmelden

    Stündliche Wetter Repinka

    Heute, 18 August, Sonntag

    Zeit Temperatur Niederschläge Wind Luftdruck Luftfeuchtigkeit
    00:00 +12°C° 0 mm 1 m/S 756 mmHg 82%
    01:00 +12°C° 0 mm 1 m/S 756 mmHg 83%
    02:00 +10°C° 0 mm 0 m/S 756 mmHg 85%
    03:00 +10°C° 0 mm 0 m/S 756 mmHg 86%
    04:00 +11°C° 0 mm 1 m/S 756 mmHg 86%
    05:00 +11°C° 0 mm 1 m/S 755 mmHg 87%
    06:00 +13°C° 0 mm 1 m/S 755 mmHg 81%
    07:00 +15°C° 0 mm 1 m/S 755 mmHg 75%
    08:00 +18°C° 0 mm 1 m/S 755 mmHg 69%
    09:00 +20°C° 0 mm 1 m/S 755 mmHg 64%
    10:00 +21°C° 0 mm 1 m/S 755 mmHg 60%
    11:00 +23°C° 0 mm 1 m/S 755 mmHg 56%
    12:00 +24°C° 0 mm 1 m/S 754 mmHg 54%
    13:00 +24°C° 0 mm 1 m/S 754 mmHg 51%
    14:00 +25°C° 0 mm 1 m/S 754 mmHg 49%
    15:00 +24°C° 0 mm 1 m/S 754 mmHg 51%
    16:00 +24°C° 0 mm 1 m/S 754 mmHg 53%
    17:00 +22°C° 0 mm 0 m/S 754 mmHg 54%
    18:00 +22°C° 0 mm 1 m/S 754 mmHg 61%
    19:00 +20°C° 0 mm 1 m/S 754 mmHg 68%
    20:00 +16°C° 0 mm 1 m/S 754 mmHg 75%
    21:00 +16°C° 0 mm 1 m/S 754 mmHg 77%
    22:00 +15°C° 0 mm 1 m/S 754 mmHg 79%
    23:00 +15°C° 0 mm 2 m/S 754 mmHg 82%

    Morgen, 19 August, Montag

    Zeit Temperatur Niederschläge Wind Luftdruck Luftfeuchtigkeit
    00:00 +15°C° 0 mm 2 m/S 754 mmHg 84%
    01:00 +14°C° 0 mm 2 m/S 754 mmHg 85%
    02:00 +14°C° 0 mm 2 m/S 754 mmHg 87%
    03:00 +14°C° 0 mm 2 m/S 753 mmHg 86%
    04:00 +13°C° 0 mm 3 m/S 753 mmHg 84%
    05:00 +13°C° 0 mm 3 m/S 753 mmHg 83%
    06:00 +16°C° 0 mm 3 m/S 753 mmHg 81%
    07:00 +17°C° 0 mm 3 m/S 753 mmHg 80%
    08:00 +18°C° 0 mm 4 m/S 753 mmHg 78%
    09:00 +19°C° 0 mm 4 m/S 753 mmHg 77%
    10:00 +20°C° 0 mm 4 m/S 753 mmHg 76%
    11:00 +21°C° 0 mm 4 m/S 753 mmHg 75%
    12:00 +22°C° 0 mm 3 m/S 753 mmHg 76%
    13:00 +22°C° 0 mm 3 m/S 753 mmHg 77%
    14:00 +22°C° 0 mm 3 m/S 753 mmHg 79%
    15:00 +23°C° 0.2 mm 2 m/S 754 mmHg 80%
    16:00 +24°C° 0.2 mm 2 m/S 754 mmHg 81%
    17:00 +24°C° 0.2 mm 2 m/S 754 mmHg 82%
    18:00 +23°C° 0.3 mm 2 m/S 754 mmHg 87%
    19:00 +20°C° 0.3 mm 2 m/S 755 mmHg 91%
    20:00 +19°C° 0.3 mm 2 m/S 755 mmHg 95%
    21:00 +18°C° 0 mm 2 m/S 756 mmHg 95%
    22:00 +18°C° 0 mm 2 m/S 756 mmHg 95%
    23:00 +17°C° 0 mm 2 m/S 756 mmHg 95%

    übermorgen, 20 August, Dienstag

    Zeit Temperatur Niederschläge Wind Luftdruck Luftfeuchtigkeit
    00:00 +16°C° 0 mm 1 m/S 757 mmHg 94%
    01:00 +15°C° 0 mm 1 m/S 757 mmHg 93%
    02:00 +14°C° 0 mm 0 m/S 758 mmHg 92%
    03:00 +14°C° 0 mm 0 m/S 758 mmHg 92%
    04:00 +13°C° 0 mm 0 m/S 758 mmHg 91%
    05:00 +13°C° 0 mm 0 m/S 759 mmHg 91%
    06:00 +16°C° 0 mm 1 m/S 759 mmHg 88%
    07:00 +18°C° 0 mm 1 m/S 759 mmHg 86%
    08:00 +19°C° 0 mm 1 m/S 759 mmHg 83%
    09:00 +21°C° 0.1 mm 1 m/S 759 mmHg 77%
    10:00 +21°C° 0.1 mm 2 m/S 760 mmHg 71%
    11:00 +24°C° 0.1 mm 2 m/S 760 mmHg 66%
    12:00 +24°C° 0.3 mm 2 m/S 760 mmHg 65%
    13:00 +24°C° 0.3 mm 2 m/S 760 mmHg 64%
    14:00 +25°C° 0.3 mm 2 m/S 760 mmHg 63%
    15:00 +25°C° 0.1 mm 2 m/S 760 mmHg 63%
    16:00 +24°C° 0.1 mm 1 m/S 760 mmHg 64%
    17:00 +24°C° 0.1 mm 1 m/S 760 mmHg 65%
    18:00 +22°C° 0 mm 1 m/S 760 mmHg 69%
    19:00 +21°C° 0 mm 1 m/S 760 mmHg 73%
    20:00 +19°C° 0 mm 1 m/S 760 mmHg 77%
    21:00 +18°C° 0 mm 1 m/S 761 mmHg 77%
    22:00 +16°C° 0 mm 1 m/S 761 mmHg 78%
    23:00 +15°C° 0 mm 1 m/S 761 mmHg 78%

    21 August, Mittwoch

    Zeit Temperatur Niederschläge Wind Luftdruck Luftfeuchtigkeit
    00:00 +14°C° 0 mm 0 m/S 761 mmHg 78%
    01:00 +14°C° 0 mm 0 m/S 761 mmHg 79%
    02:00 +13°C° 0 mm 0 m/S 762 mmHg 79%
    03:00 +14°C° 0 mm 1 m/S 762 mmHg 80%
    04:00 +14°C° 0 mm 1 m/S 762 mmHg 80%
    05:00 +14°C° 0 mm 1 m/S 762 mmHg 81%
    06:00 +15°C° 0 mm 1 m/S 762 mmHg 79%
    07:00 +18°C° 0 mm 1 m/S 762 mmHg 78%
    08:00 +19°C° 0 mm 1 m/S 762 mmHg 77%
    09:00 +20°C° 0 mm 1 m/S 762 mmHg 74%
    10:00 +22°C° 0 mm 1 m/S 762 mmHg 70%
    11:00 +23°C° 0 mm 1 m/S 761 mmHg 67%
    12:00 +22°C° 0.8 mm 1 m/S 761 mmHg 73%
    13:00 +20°C° 0.8 mm 2 m/S 761 mmHg 79%
    14:00 +20°C° 0.8 mm 2 m/S 761 mmHg 85%
    15:00 +19°C° 0.4 mm 2 m/S 761 mmHg 87%
    16:00 +18°C° 0.4 mm 2 m/S 761 mmHg 89%
    17:00 +18°C° 0.4 mm 1 m/S 760 mmHg 91%
    18:00 +18°C° 0.4 mm 1 m/S 761 mmHg 93%
    19:00 +16°C° 0.4 mm 1 m/S 761 mmHg 94%
    20:00 +15°C° 0.4 mm 1 m/S 761 mmHg 95%
    21:00 +15°C° 0.1 mm 1 m/S 761 mmHg 95%
    22:00 +15°C° 0.1 mm 1 m/S 761 mmHg 95%
    23:00 +15°C° 0.1 mm 2 m/S 761 mmHg 95%

    22 August, Donnerstag

    Zeit Temperatur Niederschläge Wind Luftdruck Luftfeuchtigkeit
    00:00 +14°C° 0 mm 2 m/S 761 mmHg 95%
    01:00 +14°C° 0 mm 2 m/S 761 mmHg 95%
    02:00 +13°C° 0 mm 2 m/S 761 mmHg 94%
    03:00 +12°C° 0 mm 2 m/S 761 mmHg 95%
    04:00 +12°C° 0 mm 2 m/S 762 mmHg 96%
    05:00 +10°C° 0 mm 2 m/S 762 mmHg 96%
    06:00 +12°C° 0 mm 2 m/S 762 mmHg 93%
    07:00 +14°C° 0 mm 2 m/S 762 mmHg 90%
    08:00 +15°C° 0 mm 2 m/S 762 mmHg 87%
    09:00 +17°C° 0 mm 2 m/S 762 mmHg 79%
    10:00 +18°C° 0 mm 2 m/S 762 mmHg 70%
    11:00 +19°C° 0 mm 3 m/S 762 mmHg 61%
    12:00 +20°C° 0 mm 3 m/S 762 mmHg 58%
    13:00 +21°C° 0 mm 3 m/S 762 mmHg 55%
    14:00 +21°C° 0 mm 3 m/S 762 mmHg 52%
    15:00 +21°C° 0 mm 2 m/S 762 mmHg 57%
    16:00 +20°C° 0 mm 2 m/S 762 mmHg 62%
    17:00 +20°C° 0 mm 2 m/S 762 mmHg 66%
    18:00 +18°C° 0 mm 2 m/S 762 mmHg 72%
    19:00 +18°C° 0 mm 1 m/S 762 mmHg 77%
    20:00 +15°C° 0 mm 1 m/S 762 mmHg 83%
    21:00 +14°C° 0 mm 1 m/S 762 mmHg 84%
    22:00 +13°C° 0 mm 1 m/S 763 mmHg 86%
    23:00 +12°C° 0 mm 1 m/S 763 mmHg 87%

    23 August, Freitag

    Zeit Temperatur Niederschläge Wind Luftdruck Luftfeuchtigkeit
    00:00 +12°C° 0 mm 1 m/S 763 mmHg 87%
    01:00 +12°C° 0 mm 1 m/S 763 mmHg 87%
    02:00 +12°C° 0 mm 1 m/S 763 mmHg 87%
    03:00 +11°C° 0 mm 1 m/S 763 mmHg 88%
    04:00 +11°C° 0 mm 1 m/S 763 mmHg 90%
    05:00 +10°C° 0 mm 1 m/S 763 mmHg 92%
    06:00 +12°C° 0 mm 1 m/S 763 mmHg 87%
    07:00 +14°C° 0 mm 1 m/S 763 mmHg 82%
    08:00 +15°C° 0 mm 1 m/S 763 mmHg 77%
    09:00 +16°C° 0 mm 2 m/S 762 mmHg 72%
    10:00 +18°C° 0 mm 2 m/S 762 mmHg 66%
    11:00 +19°C° 0 mm 2 m/S 762 mmHg 61%
    12:00 +18°C° 0.1 mm 3 m/S 762 mmHg 67%
    13:00 +17°C° 0.1 mm 3 m/S 762 mmHg 73%
    14:00 +14°C° 0.1 mm 4 m/S 762 mmHg 78%
    15:00 +16°C° 0.1 mm 3 m/S 762 mmHg 80%
    16:00 +16°C° 0.1 mm 3 m/S 761 mmHg 82%
    17:00 +16°C° 0.1 mm 2 m/S 761 mmHg 84%
    18:00 +15°C° 0.1 mm 2 m/S 761 mmHg 88%
    19:00 +14°C° 0.1 mm 2 m/S 761 mmHg 91%
    20:00 +14°C° 0.1 mm 2 m/S 761 mmHg 95%
    21:00 +13°C° 0 mm 2 m/S 762 mmHg 96%
    22:00 +13°C° 0 mm 2 m/S 762 mmHg 96%
    23:00 +12°C° 0 mm 2 m/S 762 mmHg 97%
    Mehr zeigen